Location: Newark
(35.2672°N, 80.7344°W)
Time: 04:23:42
(UTC+00:00)

Tiros 1 - Pass Details

Date: 24 January 2020
Orbit: 631 x 664 km, 48.4° (Epoch: 19 February)

Event Time Altitude Azimuth Distance (km) Brightness Sun altitude
Rises 20:26:53 0° 290° (WNW) 2,950 10.9 22.0°
Reaches altitude 10° 20:29:56 10° 310° (NW) 2,048 9.9 21.6°
Maximum altitude 20:33:04 17° 352° (N) 1,621 9.0 21.1°
Drops below altitude 10° 20:36:15 10° 34° (NE) 2,064 9.2 20.6°
Sets 20:39:21 0° 54° (NE) 2,982 10.0 20.2°
